| time (UTC) | temp C | wind direction | speed KPH | gust KPH | rain 1hr cm | rain 24hr cm | rain mn cm | humidity % | barometer mb |
| 20260510032503 | 12 | 269 | 0.0 | 6.4 | 0.08 | 2.16 | 2.11 | 95 | 1008.8 |
| 20260510032003 | 12 | 0 | 0.0 | 0.0 | 0.05 | 2.16 | 2.08 | 95 | 1008.5 |
| 20260510031503 | 12 | 0 | 0.0 | 0.0 | 0.05 | 2.16 | 2.08 | 95 | 1007.6 |
| 20260510031004 | 12 | 0 | 0.0 | 0.0 | 0.05 | 2.16 | 2.08 | 95 | 1007.7 |
| 20260510030504 | 12 | 0 | 0.0 | 0.0 | 0.05 | 2.16 | 2.08 | 95 | 1007.7 |
| 20260510025503 | 12 | 0 | 0.0 | 0.0 | 0.03 | 2.13 | 2.06 | 95 | 1008.2 |
| 20260510025003 | 12 | 0 | 0.0 | 0.0 | 0.00 | 2.11 | 2.03 | 95 | 1008.3 |
| 20260510024504 | 12 | 0 | 0.0 | 0.0 | 0.00 | 2.11 | 2.03 | 95 | 1007.7 |
| 20260510024004 | 12 | 0 | 0.0 | 0.0 | 0.00 | 2.11 | 2.03 | 95 | 1007.7 |
| 20260510023003 | 12 | 0 | 0.0 | 0.0 | 0.00 | 2.13 | 2.03 | 95 | 1007.8 |
| 20260510022503 | 12 | 0 | 0.0 | 0.0 | 0.00 | 2.13 | 2.03 | 95 | 1007.6 |
| 20260510022003 | 12 | 0 | 0.0 | 0.0 | 0.00 | 2.13 | 2.03 | 95 | 1007.3 |
| 20260510021004 | 12 | 0 | 0.0 | 0.0 | 0.00 | 2.16 | 2.03 | 95 | 1007.6 |
| 20260510020504 | 12 | 0 | 0.0 | 0.0 | 0.00 | 2.16 | 2.03 | 95 | 1007.8 |
| 20260510015503 | 12 | 0 | 0.0 | 0.0 | 0.08 | 2.18 | 2.03 | 94 | 1007.6 |
| 20260510015003 | 12 | 0 | 0.0 | 0.0 | 0.13 | 2.18 | 2.03 | 94 | 1007.6 |
| 20260510014503 | 12 | 0 | 0.0 | 0.0 | 0.18 | 2.18 | 2.03 | 94 | 1007.5 |
| 20260510014004 | 12 | 0 | 0.0 | 0.0 | 0.28 | 2.21 | 2.03 | 94 | 1007.6 |
| 20260510013504 | 12 | 0 | 0.0 | 0.0 | 0.33 | 2.21 | 2.03 | 94 | 1007.6 |
| 20260510013004 | 12 | 0 | 0.0 | 0.0 | 0.36 | 2.21 | 2.03 | 94 | 1007.6 |
| 20260510012504 | 12 | 0 | 0.0 | 0.0 | 0.43 | 2.24 | 2.03 | 94 | 1007.8 |
| 20260510012003 | 12 | 266 | 0.0 | 1.6 | 0.76 | 2.24 | 2.03 | 94 | 1007.7 |
| 20260510011503 | 12 | 266 | 0.0 | 1.6 | 1.02 | 2.24 | 2.03 | 94 | 1007.2 |
| 20260510011003 | 12 | 0 | 0.0 | 0.0 | 1.09 | 2.26 | 2.03 | 94 | 1007.4 |
| 20260510005003 | 12 | 14 | 0.0 | 9.7 | 0.99 | 2.13 | 1.91 | 93 | 1008.0 |
| 20260510004503 | 12 | 14 | 0.0 | 9.7 | 0.91 | 2.06 | 1.83 | 92 | 1008.1 |
| 20260510004004 | 12 | 0 | 0.0 | 0.0 | 0.84 | 1.98 | 1.75 | 91 | 1008.0 |
| 20260510003504 | 12 | 344 | 0.0 | 12.9 | 0.79 | 1.93 | 1.70 | 91 | 1007.6 |
| 20260510003004 | 12 | 347 | 1.6 | 12.9 | 0.74 | 1.88 | 1.65 | 89 | 1007.7 |
| 20260510002503 | 12 | 348 | 4.8 | 33.8 | 0.66 | 1.80 | 1.57 | 87 | 1007.7 |
| 20260510002004 | 13 | 348 | 3.2 | 33.8 | 0.36 | 1.50 | 1.27 | 82 | 1007.5 |
| 20260510001004 | 16 | 339 | 3.2 | 38.6 | 0.03 | 1.17 | 0.94 | 64 | 1006.8 |
| 20260510000504 | 18 | 344 | 1.6 | 38.6 | 0.00 | 1.14 | 0.91 | 56 | 1006.9 |
| 20260510000004 | 19 | 183 | 0.0 | 4.8 | 0.00 | 1.14 | 0.91 | 54 | 1006.0 |
| 20260509235504 | 19 | 183 | 0.0 | 4.8 | 0.00 | 1.14 | 0.91 | 54 | 1005.2 |
| 20260509235004 | 19 | 251 | 0.0 | 6.4 | 0.00 | 1.14 | 0.91 | 54 | 1005.2 |
| 20260509234003 | 19 | 146 | 0.0 | 8.0 | 0.00 | 1.14 | 0.91 | 54 | 1005.0 |
| 20260509233504 | 19 | 154 | 0.0 | 9.7 | 0.00 | 1.14 | 0.91 | 54 | 1004.9 |
| 20260509233004 | 20 | 182 | 0.0 | 9.7 | 0.00 | 1.14 | 0.91 | 53 | 1004.9 |
| 20260509232504 | 20 | 161 | 0.0 | 3.2 | 0.00 | 1.14 | 0.91 | 53 | 1005.0 |
| 20260509232003 | 20 | 215 | 0.0 | 12.9 | 0.00 | 1.14 | 0.91 | 53 | 1005.0 |
| 20260509231003 | 20 | 190 | 0.0 | 19.3 | 0.00 | 1.14 | 0.91 | 52 | 1004.6 |
| 20260509230003 | 20 | 208 | 0.0 | 14.5 | 0.00 | 1.14 | 0.91 | 51 | 1004.5 |
| 20260509225503 | 20 | 241 | 0.0 | 24.1 | 0.00 | 1.14 | 0.91 | 51 | 1004.6 |
| 20260509225003 | 20 | 230 | 0.0 | 24.1 | 0.00 | 1.14 | 0.91 | 50 | 1004.7 |
| 20260509224504 | 21 | 202 | 0.0 | 17.7 | 0.00 | 1.14 | 0.91 | 50 | 1004.7 |
| 20260509224004 | 21 | 217 | 0.0 | 19.3 | 0.00 | 1.14 | 0.91 | 50 | 1004.7 |
| 20260509223504 | 21 | 235 | 0.0 | 19.3 | 0.00 | 1.17 | 0.91 | 49 | 1004.7 |
| 20260509223003 | 21 | 269 | 0.0 | 25.7 | 0.00 | 1.17 | 0.91 | 49 | 1004.7 |
| 20260509222503 | 21 | 271 | 0.0 | 25.7 | 0.00 | 1.17 | 0.91 | 50 | 1004.6 |
| 20260509221503 | 21 | 203 | 0.0 | 19.3 | 0.00 | 1.17 | 0.91 | 50 | 1004.5 |
| 20260509221004 | 20 | 198 | 1.6 | 19.3 | 0.00 | 1.17 | 0.91 | 50 | 1004.6 |
| 20260509220004 | 20 | 255 | 0.0 | 16.1 | 0.00 | 1.17 | 0.91 | 51 | 1004.7 |
| 20260509215503 | 20 | 235 | 1.6 | 33.8 | 0.00 | 1.17 | 0.91 | 51 | 1004.9 |
| 20260509215003 | 20 | 237 | 1.6 | 33.8 | 0.00 | 1.17 | 0.91 | 52 | 1004.9 |
| 20260509214504 | 21 | 168 | 0.0 | 11.3 | 0.00 | 1.17 | 0.91 | 52 | 1004.9 |
| 20260509214003 | 21 | 138 | 0.0 | 11.3 | 0.00 | 1.17 | 0.91 | 52 | 1004.9 |
| 20260509213503 | 21 | 178 | 0.0 | 11.3 | 0.00 | 1.17 | 0.91 | 52 | 1004.8 |
| 20260509213003 | 20 | 187 | 1.6 | 29.0 | 0.00 | 1.19 | 0.91 | 52 | 1004.8 |
| 20260509212503 | 20 | 181 | 1.6 | 29.0 | 0.00 | 1.19 | 0.91 | 51 | 1004.9 |
| 20260509212003 | 20 | 199 | 0.0 | 8.0 | 0.00 | 1.22 | 0.91 | 53 | 1004.8 |
| 20260509211503 | 20 | 264 | 0.0 | 9.7 | 0.00 | 1.22 | 0.91 | 52 | 1004.8 |
| 20260509211004 | 20 | 265 | 0.0 | 9.7 | 0.00 | 1.24 | 0.91 | 52 | 1004.8 |
| 20260509210504 | 20 | 263 | 0.0 | 12.9 | 0.00 | 1.24 | 0.91 | 52 | 1004.8 |
| 20260509210004 | 20 | 244 | 0.0 | 12.9 | 0.00 | 1.24 | 0.91 | 52 | 1004.9 |
| 20260509205503 | 20 | 193 | 0.0 | 11.3 | 0.00 | 1.24 | 0.91 | 54 | 1004.9 |
| 20260509205003 | 20 | 185 | 0.0 | 19.3 | 0.00 | 1.24 | 0.91 | 53 | 1005.0 |
| 20260509204504 | 20 | 192 | 0.0 | 19.3 | 0.00 | 1.24 | 0.91 | 53 | 1005.3 |
| 20260509203503 | 20 | 311 | 0.0 | 17.7 | 0.00 | 1.24 | 0.91 | 52 | 1005.1 |
| 20260509203003 | 20 | 246 | 0.0 | 17.7 | 0.00 | 1.24 | 0.91 | 52 | 1005.4 |
| 20260509202503 | 20 | 168 | 0.0 | 4.8 | 0.00 | 1.24 | 0.91 | 53 | 1005.3 |
| 20260509202003 | 20 | 197 | 0.0 | 4.8 | 0.00 | 1.24 | 0.91 | 53 | 1005.3 |
| 20260509201003 | 20 | 282 | 0.0 | 6.4 | 0.00 | 1.24 | 0.91 | 54 | 1005.6 |
| 20260509200504 | 20 | 295 | 0.0 | 6.4 | 0.00 | 1.24 | 0.91 | 55 | 1005.6 |
| 20260509200004 | 19 | 179 | 0.0 | 8.0 | 0.00 | 1.24 | 0.91 | 59 | 1005.7 |
| 20260509195504 | 19 | 258 | 0.0 | 16.1 | 0.00 | 1.24 | 0.91 | 58 | 1005.9 |
| 20260509195004 | 19 | 273 | 0.0 | 16.1 | 0.00 | 1.24 | 0.91 | 58 | 1006.0 |
| 20260509194503 | 19 | 203 | 0.0 | 8.0 | 0.00 | 1.24 | 0.91 | 59 | 1006.1 |
| 20260509193503 | 18 | 206 | 0.0 | 9.7 | 0.00 | 1.24 | 0.91 | 60 | 1006.2 |
| 20260509193003 | 18 | 230 | 0.0 | 16.1 | 0.00 | 1.24 | 0.91 | 61 | 1006.1 |
| 20260509192504 | 18 | 231 | 1.6 | 16.1 | 0.00 | 1.24 | 0.91 | 58 | 1006.3 |
| 20260509192004 | 18 | 232 | 1.6 | 17.7 | 0.00 | 1.24 | 0.91 | 61 | 1006.4 |
| 20260509191504 | 18 | 195 | 1.6 | 22.5 | 0.00 | 1.24 | 0.91 | 61 | 1006.3 |
| 20260509191004 | 18 | 188 | 1.6 | 22.5 | 0.00 | 1.24 | 0.91 | 61 | 1006.5 |
| 20260509190504 | 18 | 196 | 0.0 | 14.5 | 0.00 | 1.24 | 0.91 | 60 | 1006.5 |
| 20260509190004 | 18 | 208 | 0.0 | 9.7 | 0.00 | 1.24 | 0.91 | 60 | 1006.5 |
| 20260509185004 | 18 | 228 | 0.0 | 12.9 | 0.00 | 1.24 | 0.91 | 58 | 1006.4 |
| 20260509184503 | 18 | 230 | 1.6 | 12.9 | 0.00 | 1.24 | 0.91 | 59 | 1006.7 |
| 20260509184003 | 18 | 245 | 0.0 | 9.7 | 0.00 | 1.24 | 0.91 | 60 | 1006.6 |
| 20260509183503 | 18 | 220 | 0.0 | 8.0 | 0.00 | 1.24 | 0.91 | 60 | 1006.6 |
| 20260509183004 | 18 | 194 | 0.0 | 17.7 | 0.00 | 1.24 | 0.91 | 61 | 1006.7 |
| 20260509182503 | 18 | 179 | 0.0 | 17.7 | 0.00 | 1.24 | 0.91 | 62 | 1006.7 |
| 20260509182004 | 18 | 137 | 0.0 | 9.7 | 0.00 | 1.24 | 0.91 | 64 | 1006.7 |
| 20260509181504 | 17 | 134 | 0.0 | 9.7 | 0.00 | 1.24 | 0.91 | 63 | 1006.5 |
| 20260509181004 | 17 | 270 | 0.0 | 8.0 | 0.00 | 1.24 | 0.91 | 63 | 1006.6 |
| 20260509175003 | 17 | 187 | 0.0 | 12.9 | 0.00 | 1.24 | 0.91 | 66 | 1006.7 |
| 20260509174503 | 17 | 229 | 0.0 | 17.7 | 0.00 | 1.24 | 0.91 | 67 | 1006.6 |
| 20260509173004 | 17 | 271 | 0.0 | 3.2 | 0.00 | 1.24 | 0.91 | 72 | 1006.8 |
| 20260509172504 | 16 | 269 | 0.0 | 6.4 | 0.00 | 1.24 | 0.91 | 74 | 1006.8 |
| 20260509172003 | 16 | 259 | 0.0 | 6.4 | 0.00 | 1.24 | 0.91 | 75 | 1007.0 |
| 20260509171003 | 16 | 223 | 0.0 | 22.5 | 0.00 | 1.24 | 0.91 | 75 | 1007.1 |
| 20260509170504 | 16 | 237 | 0.0 | 22.5 | 0.00 | 1.24 | 0.91 | 75 | 1007.1 |
| 20260509165504 | 15 | 284 | 0.0 | 6.4 | 0.00 | 1.24 | 0.91 | 78 | 1006.9 |
| 20260509164504 | 15 | 136 | 0.0 | 1.6 | 0.00 | 1.24 | 0.91 | 80 | 1007.2 |
| 20260509164003 | 15 | 270 | 0.0 | 3.2 | 0.00 | 1.24 | 0.91 | 82 | 1007.2 |
| 20260509163503 | 14 | 274 | 0.0 | 6.4 | 0.00 | 1.24 | 0.91 | 82 | 1007.2 |
| 20260509162003 | 14 | 268 | 0.0 | 11.3 | 0.00 | 1.24 | 0.91 | 83 | 1007.5 |
| 20260509161503 | 14 | 257 | 0.0 | 11.3 | 0.00 | 1.24 | 0.91 | 83 | 1007.3 |
| 20260509161004 | 13 | 0 | 0.0 | 0.0 | 0.00 | 1.24 | 0.91 | 85 | 1007.3 |
| 20260509160504 | 13 | 0 | 0.0 | 0.0 | 0.00 | 1.24 | 0.91 | 84 | 1007.1 |
| 20260509160004 | 13 | 0 | 0.0 | 0.0 | 0.00 | 1.24 | 0.91 | 85 | 1007.1 |
| 20260509155004 | 13 | 248 | 0.0 | 6.4 | 0.00 | 1.24 | 0.91 | 85 | 1007.0 |
| 20260509154504 | 13 | 227 | 0.0 | 6.4 | 0.00 | 1.24 | 0.91 | 85 | 1007.1 |
| 20260509153504 | 13 | 0 | 0.0 | 0.0 | 0.00 | 1.24 | 0.91 | 87 | 1007.1 |
| 20260509153004 | 13 | 271 | 0.0 | 6.4 | 0.00 | 1.24 | 0.91 | 87 | 1007.1 |
| 20260509152503 | 13 | 271 | 0.0 | 6.4 | 0.00 | 1.24 | 0.91 | 87 | 1007.1 |
| 20260509152003 | 13 | 0 | 0.0 | 0.0 | 0.00 | 1.24 | 0.91 | 87 | 1007.1 |
| 20260509151503 | 13 | 237 | 0.0 | 1.6 | 0.00 | 1.24 | 0.91 | 88 | 1007.2 |
| 20260509151004 | 12 | 256 | 0.0 | 9.7 | 0.00 | 1.24 | 0.91 | 88 | 1007.3 |
| 20260509150004 | 12 | 353 | 0.0 | 1.6 | 0.00 | 1.24 | 0.91 | 88 | 1007.3 |
| 20260509145503 | 13 | 254 | 0.0 | 9.7 | 0.00 | 1.24 | 0.91 | 88 | 1007.2 |
| 20260509144004 | 12 | 167 | 0.0 | 4.8 | 0.00 | 1.24 | 0.91 | 90 | 1007.0 |
| 20260509143504 | 12 | 188 | 0.0 | 4.8 | 0.00 | 1.24 | 0.91 | 90 | 1007.0 |
| 20260509142504 | 12 | 0 | 0.0 | 0.0 | 0.00 | 1.24 | 0.91 | 90 | 1007.2 |
| 20260509141503 | 12 | 0 | 0.0 | 0.0 | 0.00 | 1.24 | 0.91 | 91 | 1007.3 |
| 20260509141004 | 12 | 0 | 0.0 | 0.0 | 0.00 | 1.24 | 0.91 | 91 | 1007.1 |
| 20260509140503 | 12 | 0 | 0.0 | 0.0 | 0.00 | 1.24 | 0.91 | 90 | 1007.0 |
| 20260509140005 | 12 | 282 | 0.0 | 4.8 | 0.00 | 1.24 | 0.91 | 91 | 1007.1 |
| 20260509135503 | 12 | 282 | 0.0 | 4.8 | 0.00 | 1.24 | 0.91 | 91 | 1007.1 |
| 20260509135003 | 12 | 221 | 0.0 | 1.6 | 0.00 | 1.24 | 0.91 | 91 | 1007.1 |
| 20260509134503 | 12 | 221 | 0.0 | 1.6 | 0.00 | 1.24 | 0.91 | 92 | 1007.0 |
| 20260509134004 | 12 | 0 | 0.0 | 0.0 | 0.00 | 1.24 | 0.91 | 92 | 1007.2 |
| 20260509133504 | 11 | 0 | 0.0 | 0.0 | 0.00 | 1.24 | 0.91 | 92 | 1007.3 |
| 20260509133004 | 11 | 0 | 0.0 | 0.0 | 0.00 | 1.24 | 0.91 | 92 | 1007.4 |
| 20260509132503 | 11 | 0 | 0.0 | 0.0 | 0.00 | 1.24 | 0.91 | 92 | 1007.5 |
| 20260509132003 | 11 | 0 | 0.0 | 0.0 | 0.00 | 1.24 | 0.91 | 93 | 1007.5 |
| 20260509131503 | 11 | 0 | 0.0 | 0.0 | 0.00 | 1.24 | 0.91 | 93 | 1007.4 |
| 20260509131003 | 11 | 0 | 0.0 | 0.0 | 0.00 | 1.24 | 0.91 | 93 | 1007.5 |
| 20260509130004 | 11 | 0 | 0.0 | 0.0 | 0.00 | 1.24 | 0.91 | 93 | 1007.5 |
| 20260509125004 | 11 | 0 | 0.0 | 0.0 | 0.00 | 1.24 | 0.91 | 93 | 1007.4 |
| 20260509124504 | 10 | 0 | 0.0 | 0.0 | 0.00 | 1.24 | 0.91 | 93 | 1007.4 |
| 20260509123504 | 10 | 0 | 0.0 | 0.0 | 0.03 | 1.27 | 0.91 | 93 | 1007.4 |
| 20260509123004 | 10 | 0 | 0.0 | 0.0 | 0.03 | 1.27 | 0.91 | 93 | 1007.5 |
| 20260509122503 | 10 | 0 | 0.0 | 0.0 | 0.03 | 1.27 | 0.91 | 93 | 1007.6 |
| 20260509122003 | 10 | 0 | 0.0 | 0.0 | 0.03 | 1.27 | 0.91 | 93 | 1007.7 |
| 20260509121503 | 10 | 0 | 0.0 | 0.0 | 0.03 | 1.27 | 0.91 | 93 | 1007.7 |
| 20260509121003 | 10 | 0 | 0.0 | 0.0 | 0.03 | 1.27 | 0.91 | 93 | 1007.7 |
| 20260509120004 | 10 | 0 | 0.0 | 0.0 | 0.03 | 1.27 | 0.91 | 93 | 1007.6 |
| 20260509115504 | 10 | 0 | 0.0 | 0.0 | 0.05 | 1.27 | 0.91 | 93 | 1007.8 |
| 20260509115004 | 10 | 0 | 0.0 | 0.0 | 0.05 | 1.27 | 0.91 | 93 | 1007.8 |
| 20260509114504 | 10 | 0 | 0.0 | 0.0 | 0.08 | 1.27 | 0.91 | 93 | 1007.8 |
| 20260509114004 | 10 | 0 | 0.0 | 0.0 | 0.10 | 1.27 | 0.91 | 93 | 1007.7 |
| 20260509113504 | 10 | 0 | 0.0 | 0.0 | 0.10 | 1.24 | 0.89 | 93 | 1007.7 |
| 20260509113004 | 10 | 0 | 0.0 | 0.0 | 0.10 | 1.24 | 0.89 | 94 | 1007.7 |
| 20260509112503 | 10 | 0 | 0.0 | 0.0 | 0.10 | 1.24 | 0.89 | 94 | 1007.7 |
| 20260509112003 | 10 | 0 | 0.0 | 0.0 | 0.13 | 1.24 | 0.89 | 94 | 1007.5 |
| 20260509111503 | 10 | 0 | 0.0 | 0.0 | 0.13 | 1.24 | 0.89 | 94 | 1007.5 |
| 20260509111004 | 10 | 0 | 0.0 | 0.0 | 0.13 | 1.24 | 0.89 | 94 | 1007.4 |
| 20260509110504 | 10 | 0 | 0.0 | 0.0 | 0.13 | 1.24 | 0.89 | 94 | 1007.4 |
| 20260509110004 | 10 | 0 | 0.0 | 0.0 | 0.15 | 1.24 | 0.89 | 94 | 1007.3 |
| 20260509105504 | 10 | 0 | 0.0 | 0.0 | 0.13 | 1.22 | 0.86 | 94 | 1007.3 |
| 20260509105004 | 10 | 0 | 0.0 | 0.0 | 0.13 | 1.22 | 0.86 | 93 | 1007.5 |
| 20260509104503 | 10 | 0 | 0.0 | 0.0 | 0.13 | 1.19 | 0.84 | 93 | 1007.6 |
| 20260509104003 | 10 | 0 | 0.0 | 0.0 | 0.10 | 1.17 | 0.81 | 93 | 1007.3 |
| 20260509103503 | 10 | 0 | 0.0 | 0.0 | 0.08 | 1.14 | 0.79 | 93 | 1007.5 |
| 20260509103004 | 10 | 0 | 0.0 | 0.0 | 0.08 | 1.14 | 0.79 | 93 | 1007.3 |
| 20260509102503 | 10 | 0 | 0.0 | 0.0 | 0.10 | 1.14 | 0.79 | 93 | 1007.4 |
| 20260509101503 | 10 | 0 | 0.0 | 0.0 | 0.08 | 1.12 | 0.76 | 93 | 1007.5 |
| 20260509101003 | 10 | 156 | 0.0 | 3.2 | 0.08 | 1.12 | 0.76 | 93 | 1007.5 |
| 20260509100503 | 10 | 156 | 0.0 | 3.2 | 0.10 | 1.12 | 0.76 | 93 | 1007.5 |
| 20260509095504 | 10 | 0 | 0.0 | 0.0 | 0.08 | 1.09 | 0.74 | 93 | 1007.5 |
| 20260509094504 | 10 | 0 | 0.0 | 0.0 | 0.08 | 1.07 | 0.71 | 94 | 1007.5 |
| 20260509094003 | 10 | 0 | 0.0 | 0.0 | 0.10 | 1.07 | 0.71 | 94 | 1007.6 |
| 20260509093503 | 10 | 0 | 0.0 | 0.0 | 0.13 | 1.07 | 0.71 | 94 | 1007.6 |
| 20260509093003 | 10 | 0 | 0.0 | 0.0 | 0.15 | 1.07 | 0.71 | 94 | 1007.6 |
| 20260509092503 | 10 | 0 | 0.0 | 0.0 | 0.15 | 1.04 | 0.69 | 94 | 1007.7 |
| 20260509092003 | 10 | 0 | 0.0 | 0.0 | 0.20 | 1.04 | 0.69 | 94 | 1007.8 |
| 20260509091504 | 9 | 0 | 0.0 | 0.0 | 0.23 | 1.04 | 0.69 | 94 | 1007.8 |
| 20260509091004 | 10 | 0 | 0.0 | 0.0 | 0.25 | 1.04 | 0.69 | 94 | 1007.9 |
| 20260509090503 | 9 | 0 | 0.0 | 0.0 | 0.23 | 1.02 | 0.66 | 94 | 1007.9 |
| 20260509090004 | 9 | 158 | 0.0 | 4.8 | 0.23 | 1.02 | 0.66 | 94 | 1007.9 |
| 20260509085503 | 9 | 158 | 0.0 | 4.8 | 0.23 | 1.02 | 0.66 | 94 | 1008.0 |
| 20260509085004 | 9 | 0 | 0.0 | 0.0 | 0.20 | 0.99 | 0.64 | 94 | 1008.0 |
| 20260509084504 | 9 | 0 | 0.0 | 0.0 | 0.20 | 0.99 | 0.64 | 94 | 1008.0 |
| 20260509084004 | 9 | 0 | 0.0 | 0.0 | 0.20 | 0.97 | 0.61 | 94 | 1008.0 |
| 20260509083504 | 9 | 0 | 0.0 | 0.0 | 0.20 | 0.94 | 0.58 | 93 | 1008.2 |
| 20260509083004 | 9 | 0 | 0.0 | 0.0 | 0.23 | 0.91 | 0.56 | 93 | 1008.3 |
| 20260509082003 | 9 | 0 | 0.0 | 0.0 | 0.23 | 0.84 | 0.48 | 93 | 1008.2 |
| 20260509081503 | 9 | 0 | 0.0 | 0.0 | 0.20 | 0.81 | 0.46 | 93 | 1008.2 |
| 20260509080504 | 9 | 0 | 0.0 | 0.0 | 0.20 | 0.79 | 0.43 | 93 | 1008.4 |
| 20260509080004 | 9 | 0 | 0.0 | 0.0 | 0.20 | 0.79 | 0.43 | 93 | 1008.6 |
| 20260509075503 | 9 | 0 | 0.0 | 0.0 | 0.20 | 0.79 | 0.43 | 93 | 1008.3 |
| 20260509074504 | 10 | 0 | 0.0 | 0.0 | 0.23 | 0.79 | 0.43 | 93 | 1008.6 |
| 20260509074004 | 10 | 0 | 0.0 | 0.0 | 0.23 | 0.76 | 0.41 | 94 | 1008.6 |
| 20260509073504 | 10 | 0 | 0.0 | 0.0 | 0.18 | 0.71 | 0.36 | 94 | 1008.4 |
| 20260509072504 | 9 | 0 | 0.0 | 0.0 | 0.13 | 0.64 | 0.28 | 94 | 1008.6 |
| 20260509072004 | 9 | 0 | 0.0 | 0.0 | 0.10 | 0.61 | 0.25 | 94 | 1008.5 |
| 20260509071503 | 9 | 0 | 0.0 | 0.0 | 0.08 | 0.58 | 0.23 | 94 | 1008.4 |
| 20260509071003 | 10 | 0 | 0.0 | 0.0 | 0.08 | 0.58 | 0.23 | 94 | 1008.4 |
| 20260509070503 | 9 | 0 | 0.0 | 0.0 | 0.08 | 0.58 | 0.23 | 94 | 1008.3 |
| 20260509070004 | 9 | 0 | 0.0 | 0.0 | 0.08 | 0.58 | 0.23 | 94 | 1008.4 |
| 20260509065004 | 10 | 0 | 0.0 | 0.0 | 0.08 | 0.56 | 0.20 | 94 | 1008.5 |
| 20260509064504 | 10 | 0 | 0.0 | 0.0 | 0.08 | 0.56 | 0.20 | 94 | 1008.6 |
| 20260509064004 | 10 | 0 | 0.0 | 0.0 | 0.05 | 0.53 | 0.18 | 94 | 1008.7 |
| 20260509063003 | 10 | 0 | 0.0 | 0.0 | 0.03 | 0.51 | 0.15 | 94 | 1008.8 |
| 20260509062503 | 10 | 0 | 0.0 | 0.0 | 0.03 | 0.51 | 0.15 | 94 | 1008.8 |
| 20260509062003 | 10 | 0 | 0.0 | 0.0 | 0.03 | 0.51 | 0.15 | 94 | 1008.9 |
| 20260509061504 | 10 | 0 | 0.0 | 0.0 | 0.05 | 0.51 | 0.15 | 94 | 1008.8 |
| 20260509061004 | 10 | 0 | 0.0 | 0.0 | 0.05 | 0.51 | 0.15 | 94 | 1009.0 |
| 20260509060504 | 10 | 0 | 0.0 | 0.0 | 0.05 | 0.51 | 0.15 | 93 | 1009.1 |
| 20260509060004 | 10 | 0 | 0.0 | 0.0 | 0.05 | 0.51 | 0.15 | 93 | 1009.2 |
| 20260509055504 | 10 | 0 | 0.0 | 0.0 | 0.05 | 0.48 | 0.13 | 93 | 1009.2 |
| 20260509054503 | 10 | 0 | 0.0 | 0.0 | 0.05 | 0.48 | 0.13 | 93 | 1009.3 |
| 20260509054003 | 10 | 0 | 0.0 | 0.0 | 0.08 | 0.48 | 0.13 | 93 | 1009.3 |
| 20260509053504 | 10 | 0 | 0.0 | 0.0 | 0.08 | 0.48 | 0.13 | 93 | 1009.2 |
| 20260509053004 | 10 | 0 | 0.0 | 0.0 | 0.10 | 0.48 | 0.13 | 93 | 1009.4 |
| 20260509052504 | 10 | 0 | 0.0 | 0.0 | 0.10 | 0.48 | 0.13 | 93 | 1009.4 |
| 20260509052003 | 10 | 0 | 0.0 | 0.0 | 0.08 | 0.46 | 0.10 | 93 | 1009.6 |
| 20260509051503 | 10 | 0 | 0.0 | 0.0 | 0.10 | 0.46 | 0.10 | 93 | 1009.6 |
| 20260509051003 | 10 | 0 | 0.0 | 0.0 | 0.10 | 0.46 | 0.10 | 93 | 1009.7 |
| 20260509050004 | 10 | 0 | 0.0 | 0.0 | 0.10 | 0.46 | 0.10 | 93 | 1009.8 |
| 20260509045503 | 10 | 0 | 0.0 | 0.0 | 0.08 | 0.43 | 0.08 | 93 | 1009.6 |
| 20260509045003 | 10 | 0 | 0.0 | 0.0 | 0.10 | 0.43 | 0.08 | 92 | 1009.9 |
| 20260509044504 | 10 | 0 | 0.0 | 0.0 | 0.10 | 0.43 | 0.08 | 92 | 1009.9 |
| 20260509044004 | 10 | 0 | 0.0 | 0.0 | 0.10 | 0.41 | 0.05 | 92 | 1009.8 |
| 20260509043504 | 10 | 0 | 0.0 | 0.0 | 0.10 | 0.41 | 0.05 | 92 | 1009.8 |
| 20260509042504 | 10 | 0 | 0.0 | 0.0 | 0.08 | 0.38 | 0.03 | 92 | 1009.9 |
| 20260509042004 | 10 | 0 | 0.0 | 0.0 | 0.10 | 0.38 | 0.03 | 92 | 1010.1 |
| 20260509041504 | 10 | 0 | 0.0 | 0.0 | 0.08 | 0.36 | 0.00 | 92 | 1010.1 |
| 20260509041003 | 10 | 0 | 0.0 | 0.0 | 0.08 | 0.36 | 0.00 | 92 | 1010.0 |
| 20260509040503 | 10 | 0 | 0.0 | 0.0 | 0.08 | 0.36 | 0.00 | 92 | 1010.1 |
| 20260509040005 | 10 | 0 | 0.0 | 0.0 | 0.08 | 0.36 | 0.00 | 92 | 1010.3 |
| 20260509035503 | 10 | 0 | 0.0 | 0.0 | 0.08 | 0.36 | 0.36 | 92 | 1010.5 |
| 20260509035003 | 10 | 0 | 0.0 | 0.0 | 0.05 | 0.33 | 0.33 | 92 | 1010.5 |
| 20260509034503 | 10 | 0 | 0.0 | 0.0 | 0.05 | 0.33 | 0.33 | 92 | 1010.5 |
| 20260509033504 | 10 | 0 | 0.0 | 0.0 | 0.03 | 0.30 | 0.30 | 91 | 1010.5 |